Total_Precipitation_Accumulation
1.81 2.08 2.13 2.04 2.05 2.10 1.96 1.93 2.03 2.04 2.01 2.07 2.08 2.07 2.08 2.23 2.43 2.64 2.60 2.76 2.88 2.93 2.89 2.81 2.72 2.75 2.91 2.85 2.99 3.15 3.38 3.61 3.32 2.96 2.80 2.75 2.75 2.57 2.39 2.09 1.85 1.73 1.61
2.06 2.40 2.48 2.24 2.04 1.90 1.75 1.74 1.88 2.04 2.09 2.08 2.07 2.07 2.01 2.12 2.36 2.52 2.63 2.87 3.00 2.90 2.80 2.77 2.67 2.80 2.90 2.88 2.96 2.95 3.02 3.31 3.20 2.98 2.92 2.94 2.84 2.63 2.50 2.31 1.94 1.76 1.77
1.92 2.27 2.28 2.02 1.79 1.74 1.73 1.75 1.85 2.02 2.05 2.03 2.06 2.13 2.22 2.33 2.48 2.59 2.70 2.89 2.87 2.75 2.75 2.67 2.57 2.67 2.63 2.69 2.72 2.72 2.71 2.80 2.99 2.90 2.81 2.88 2.80 2.62 2.54 2.36 2.24 2.32 2.09
1.52 1.87 1.84 1.67 1.61 1.62 1.64 1.67 1.68 1.76 1.80 1.85 2.06 2.27 2.41 2.54 2.63 2.66 2.67 2.66 2.65 2.55 2.44 2.37 2.39 2.53 2.64 2.63 2.54 2.52 2.58 2.71 2.80 2.83 2.81 2.89 2.91 2.91 2.79 2.62 2.61 2.54 2.35
1.48 1.72 1.67 1.59 1.61 1.54 1.51 1.62 1.69 1.74 1.76 1.98 2.14 2.23 2.28 2.33 2.39 2.52 2.51 2.43 2.42 2.32 2.23 2.07 2.11 2.43 2.59 2.55 2.35 2.45 2.52 2.58 2.65 2.77 2.83 2.93 3.01 3.20 3.00 2.69 2.56 2.60 2.45
1.42 1.65 1.62 1.54 1.51 1.41 1.47 1.58 1.70 1.80 1.97 2.14 2.12 2.10 2.06 1.77 1.88 1.99 2.03 2.08 2.12 2.10 1.99 1.93 1.93 2.01 2.05 2.09 2.08 2.09 2.16 2.23 2.44 2.73 2.82 2.82 2.79 2.88 2.96 2.85 2.74 2.68 2.62
1.46 1.67 1.68 1.60 1.55 1.49 1.45 1.63 1.79 1.98 2.17 2.26 2.23 2.17 2.01 1.91 1.80 1.69 1.68 1.75 1.91 1.93 1.95 2.02 1.75 1.58 1.71 1.74 1.87 1.86 1.79 1.88 2.03 2.29 2.48 2.48 2.58 2.58 2.84 2.86 2.92 2.96 2.90
1.43 1.66 1.73 1.67 1.69 1.77 1.78 1.84 2.02 2.24 2.39 2.40 2.38 2.28 2.18 2.08 1.98 1.80 1.77 1.69 1.80 1.83 1.84 1.86 1.82 1.69 1.65 1.76 1.84 1.77 1.62 1.59 1.59 1.57 1.79 2.07 2.31 2.55 2.61 2.67 2.79 2.88 2.90
1.39 1.61 1.74 1.79 1.87 1.89 1.95 2.17 2.35 2.50 2.53 2.51 2.56 2.48 2.37 2.35 2.18 1.84 1.66 1.58 1.75 1.79 1.80 1.75 1.71 1.63 1.68 1.56 1.51 1.53 1.52 1.52 1.38 1.37 1.45 1.67 1.86 1.93 2.15 2.41 2.63 2.63 2.58
1.72 1.81 2.03 2.24 2.41 2.47 2.53 2.58 2.63 2.73 2.68 2.68 2.61 2.60 2.49 2.43 2.34 1.82 1.54 1.47 1.65 1.72 1.79 1.74 1.62 1.47 1.46 1.32 1.30 1.45 1.45 1.45 1.48 1.40 1.30 1.34 1.43 1.58 1.68 1.76 2.07 2.30 2.22
2.12 2.18 2.38 2.71 2.90 2.89 2.94 2.83 2.72 2.72 2.75 2.75 2.65 2.56 2.48 2.39 2.29 1.85 1.65 1.59 1.74 1.83 1.79 1.73 1.66 1.53 1.33 1.28 1.22 1.27 1.35 1.34 1.40 1.44 1.40 1.37 1.46 1.59 1.55 1.53 1.69 1.91 1.99
2.39 2.58 2.83 3.08 2.96 2.87 3.02 2.92 2.90 2.96 2.95 2.84 2.74 2.63 2.62 2.53 2.28 1.94 1.70 1.70 1.79 1.87 1.92 1.89 1.79 1.57 1.31 1.23 1.15 1.14 1.13 1.05 1.08 1.26 1.31 1.28 1.33 1.46 1.54 1.52 1.58 1.65 1.73
2.59 2.75 2.88 2.97 3.09 3.22 3.27 3.14 3.05 3.02 2.96 2.77 2.66 2.49 2.39 2.45 2.42 1.99 1.69 1.71 1.76 1.76 1.91 1.97 1.71 1.46 1.29 1.14 1.14 1.14 1.02 0.92 1.03 1.13 1.14 1.15 1.18 1.31 1.53 1.69 1.75 1.77 1.73
2.46 2.48 2.59 2.73 2.86 2.98 3.23 3.26 3.14 2.97 2.86 2.76 2.68 2.50 2.38 2.37 2.33 1.99 1.67 1.63 1.70 1.66 1.72 1.80 1.65 1.47 1.32 1.18 1.13 1.09 1.03 1.07 1.16 1.17 1.20 1.25 1.28 1.36 1.47 1.55 1.66 1.74 1.73
2.48 2.43 2.38 2.41 2.55 2.69 2.80 2.89 2.83 2.77 2.58 2.45 2.30 2.21 2.15 2.15 2.16 1.95 1.71 1.64 1.73 1.80 1.77 1.76 1.71 1.56 1.43 1.32 1.29 1.33 1.37 1.36 1.30 1.30 1.35 1.36 1.35 1.35 1.41 1.48 1.56 1.64 1.60
2.39 2.27 2.26 2.25 2.32 2.37 2.38 2.33 2.20 2.10 1.93 1.72 1.61 1.55 1.54 1.59 1.73 1.59 1.46 1.51 1.67 1.78 1.66 1.60 1.69 1.67 1.58 1.50 1.46 1.47 1.47 1.43 1.39 1.40 1.38 1.37 1.35 1.34 1.38 1.42 1.45 1.46 1.43
2.28 2.12 1.99 1.93 1.95 1.96 2.00 2.14 2.20 1.97 1.76 1.53 1.37 1.24 1.21 1.30 1.40 1.41 1.39 1.42 1.54 1.57 1.44 1.45 1.56 1.61 1.56 1.52 1.47 1.44 1.40 1.45 1.49 1.43 1.37 1.39 1.39 1.37 1.40 1.44 1.44 1.46 1.42
2.16 2.08 1.94 1.88 1.88 1.91 1.95 2.04 2.17 2.15 1.87 1.50 1.36 1.25 1.08 1.03 1.06 1.13 1.17 1.23 1.28 1.30 1.26 1.31 1.38 1.45 1.47 1.49 1.50 1.50 1.45 1.46 1.48 1.47 1.43 1.43 1.44 1.39 1.39 1.39 1.35 1.37 1.46
2.02 1.96 1.89 1.88 1.86 1.86 1.96 2.01 1.99 2.03 1.91 1.68 1.43 1.22 1.07 0.93 0.93 1.01 1.00 1.00 1.12 1.16 1.14 1.19 1.23 1.26 1.31 1.38 1.39 1.44 1.44 1.42 1.42 1.45 1.40 1.40 1.44 1.44 1.44 1.42 1.42 1.45 1.46
1.93 1.84 1.72 1.70 1.67 1.60 1.63 1.71 1.72 1.79 1.76 1.67 1.52 1.24 1.01 0.90 0.91 0.97 0.96 1.04 1.14 1.16 1.14 1.18 1.14 1.15 1.20 1.27 1.33 1.40 1.43 1.44 1.47 1.46 1.44 1.44 1.43 1.45 1.44 1.45 1.48 1.51 1.52
1.88 1.66 1.42 1.30 1.35 1.43 1.51 1.58 1.60 1.62 1.65 1.61 1.41 1.15 0.95 0.83 0.92 1.04 1.11 1.13 1.12 1.13 1.10 1.09 1.07 1.08 1.12 1.20 1.26 1.32 1.39 1.46 1.45 1.45 1.49 1.47 1.41 1.41 1.41 1.45 1.44 1.46 1.51
1.73 1.58 1.39 1.28 1.31 1.37 1.43 1.56 1.58 1.54 1.52 1.52 1.40 1.18 1.03 0.89 0.96 1.05 1.08 1.06 1.05 1.08 1.07 1.04 1.00 1.03 1.08 1.16 1.26 1.30 1.34 1.35 1.37 1.41 1.43 1.45 1.46 1.44 1.43 1.48 1.49 1.48 1.51
1.71 1.63 1.51 1.42 1.45 1.46 1.47 1.52 1.49 1.43 1.41 1.40 1.35 1.24 1.12 1.06 1.07 1.11 1.11 1.09 1.10 1.08 1.08 1.07 1.03 1.01 1.07 1.15 1.20 1.24 1.28 1.27 1.27 1.29 1.37 1.44 1.46 1.48 1.53 1.55 1.51 1.46 1.45
1.53 1.55 1.49 1.41 1.41 1.45 1.42 1.43 1.38 1.33 1.29 1.26 1.21 1.19 1.14 1.13 1.15 1.12 1.13 1.11 1.07 0.96 0.89 0.90 0.93 0.97 1.00 1.02 1.02 1.04 1.06 1.10 1.09 1.13 1.20 1.29 1.35 1.44 1.52 1.57 1.54 1.49 1.55
1.43 1.49 1.49 1.48 1.47 1.45 1.46 1.49 1.42 1.34 1.30 1.25 1.22 1.19 1.16 1.14 1.12 1.15 1.13 1.04 0.95 0.90 0.86 0.87 0.92 0.92 0.88 0.89 0.89 0.90 1.00 0.99 0.95 1.00 1.11 1.26 1.33 1.43 1.57 1.61 1.61 1.63 1.73
1.30 1.34 1.34 1.37 1.39 1.39 1.37 1.39 1.37 1.29 1.21 1.14 1.11 1.10 1.03 0.98 0.96 0.95 0.93 0.89 0.89 0.89 0.89 0.91 0.93 0.93 0.90 0.86 0.87 0.94 0.95 0.90 0.91 0.99 0.99 1.06 1.20 1.31 1.41 1.48 1.46 1.55 1.66